This is the latest recevied weather packets stored in our database for station/object N5UKZ-WX. If no packets are shown the sender has not sent any weather packets the latest 10 day(s).
| Time | Temp. | Humidity | Pressure | Rain* | Wind** | Luminosity | Snow |
|---|---|---|---|---|---|---|---|
| 1777737981 | 16.11° C | 100% | 1018 hPa | 0 mm | - | - | - |
| 1777737081 | 16.11° C | 100% | 1018 hPa | 0 mm | - | - | - |
| 1777736181 | 16.67° C | 100% | 1018 hPa | 0 mm | - | - | - |
| 1777735281 | 16.11° C | 100% | 1018 hPa | 0 mm | - | - | - |
| 1777734381 | 15.56° C | 100% | 1017.7 hPa | 0 mm | - | - | - |
| 1777733481 | 15.56° C | 100% | 1017.7 hPa | 0 mm | - | - | - |
| 1777732581 | 15° C | 100% | 1017.3 hPa | 0 mm | - | - | - |
| 1777731680 | 14.44° C | 100% | 1017 hPa | 0 mm | - | - | - |
| 1777730780 | 14.44° C | 100% | 1017 hPa | 0 mm | - | - | - |
| 1777729880 | 14.44° C | 100% | 1017 hPa | 0 mm | - | - | - |
| 1777728980 | 14.44° C | 100% | 1017 hPa | 0 mm | - | - | - |
| 1777728080 | 13.89° C | 100% | 1017 hPa | 0 mm | - | - | - |
| 1777727179 | 13.89° C | 100% | 1016.6 hPa | 0 mm | - | - | - |
| 1777726279 | 13.33° C | 100% | 1016.6 hPa | 0 mm | - | - | - |
| 1777725379 | 13.89° C | 100% | 1016.3 hPa | 0 mm | - | - | - |
| 1777724479 | 13.89° C | 100% | 1016.3 hPa | 0 mm | - | - | - |
| 1777723579 | 13.33° C | 100% | 1015.6 hPa | 0 mm | - | - | - |
| 1777722678 | 13.33° C | 100% | 1015.3 hPa | 0 mm | - | - | - |
| 1777721778 | 13.33° C | 100% | 1015.3 hPa | 0 mm | - | - | - |
| 1777720878 | 13.89° C | 100% | 1015.3 hPa | 0 mm | - | - | - |
| 1777719978 | 13.89° C | 100% | 1014.9 hPa | 0 mm | - | - | - |
| 1777719078 | 13.33° C | 100% | 1014.9 hPa | 0 mm | - | - | - |
| 1777718177 | 13.89° C | 100% | 1014.9 hPa | 0 mm | - | - | - |
| 1777717277 | 13.89° C | 100% | 1014.6 hPa | 0 mm | - | - | - |
| 1777716377 | 13.89° C | 100% | 1014.6 hPa | 0 mm | - | - | - |
* Rain latest hour (hover to see other rain measurements)
** Current wind speed in m/s (hover to see current wind gust speed)